| time (UTC) | temp F | wind direction | speed MPH | gust MPH | rain 1hr in | rain 24hr in | rain mn in | humidity % | barometer mb |
| 20260508205510 | 66 | 229 | 3.0 | 10.0 | 0.00 | 0.00 | 0.00 | 44 | 1009.8 |
| 20260508205012 | 66 | 236 | 4.0 | 10.0 | 0.00 | 0.00 | 0.00 | 44 | 1010.1 |
| 20260508204517 | 66 | 311 | 4.0 | 12.0 | 0.00 | 0.00 | 0.00 | 45 | 1010.2 |
| 20260508204003 | 67 | 228 | 4.0 | 12.0 | 0.00 | 0.00 | 0.00 | 43 | 1010.2 |
| 20260508203508 | 67 | 213 | 4.0 | 8.0 | 0.00 | 0.00 | 0.00 | 44 | 1010.2 |
| 20260508203012 | 67 | 229 | 2.0 | 10.0 | 0.00 | 0.00 | 0.00 | 44 | 1010.2 |
| 20260508202504 | 66 | 255 | 6.0 | 10.0 | 0.00 | 0.00 | 0.00 | 43 | 1010.2 |
| 20260508202002 | 66 | 248 | 3.0 | 9.0 | 0.00 | 0.00 | 0.00 | 44 | 1010.4 |
| 20260508201510 | 66 | 360 | 5.0 | 11.0 | 0.00 | 0.00 | 0.00 | 42 | 1010.4 |
| 20260508201005 | 66 | 288 | 5.0 | 8.0 | 0.00 | 0.00 | 0.00 | 43 | 1010.4 |
| 20260508200503 | 66 | 224 | 2.0 | 9.0 | 0.00 | 0.00 | 0.00 | 43 | 1010.4 |
| 20260508200009 | 66 | 288 | 3.0 | 11.0 | 0.00 | 0.00 | 0.00 | 43 | 1010.5 |
| 20260508195504 | 66 | 246 | 3.0 | 11.0 | 0.00 | 0.00 | 0.00 | 42 | 1010.6 |
| 20260508195003 | 67 | 251 | 6.0 | 11.0 | 0.00 | 0.00 | 0.00 | 41 | 1010.6 |
| 20260508194517 | 67 | 250 | 5.0 | 14.0 | 0.00 | 0.00 | 0.00 | 41 | 1010.6 |
| 20260508194004 | 67 | 223 | 8.0 | 13.0 | 0.00 | 0.00 | 0.00 | 42 | 1010.6 |
| 20260508193504 | 67 | 244 | 3.0 | 20.0 | 0.00 | 0.00 | 0.00 | 42 | 1010.7 |
| 20260508193020 | 67 | 213 | 8.0 | 20.0 | 0.00 | 0.00 | 0.00 | 39 | 1010.7 |
| 20260508192510 | 67 | 225 | 9.0 | 18.0 | 0.00 | 0.00 | 0.00 | 43 | 1010.8 |
| 20260508192003 | 67 | 246 | 6.0 | 12.0 | 0.00 | 0.00 | 0.00 | 42 | 1010.9 |
| 20260508191503 | 68 | 225 | 6.0 | 11.0 | 0.00 | 0.00 | 0.00 | 41 | 1010.9 |
| 20260508191003 | 68 | 220 | 5.0 | 10.0 | 0.00 | 0.00 | 0.00 | 41 | 1010.9 |
| 20260508190504 | 67 | 219 | 6.0 | 14.0 | 0.00 | 0.00 | 0.00 | 41 | 1011.1 |
| 20260508190021 | 67 | 209 | 5.0 | 14.0 | 0.00 | 0.00 | 0.00 | 43 | 1011.3 |
| 20260508185504 | 67 | 225 | 5.0 | 10.0 | 0.00 | 0.00 | 0.00 | 43 | 1011.4 |
| 20260508185005 | 67 | 250 | 5.0 | 16.0 | 0.00 | 0.00 | 0.00 | 44 | 1011.6 |
| 20260508184524 | 67 | 265 | 8.0 | 16.0 | 0.00 | 0.00 | 0.00 | 41 | 1011.5 |
| 20260508184007 | 68 | 222 | 7.0 | 16.0 | 0.00 | 0.00 | 0.00 | 43 | 1011.6 |
| 20260508183507 | 68 | 303 | 7.0 | 15.0 | 0.00 | 0.00 | 0.00 | 42 | 1011.6 |
| 20260508183028 | 68 | 279 | 8.0 | 16.0 | 0.00 | 0.00 | 0.00 | 44 | 1011.7 |
| 20260508182505 | 67 | 243 | 6.0 | 16.0 | 0.00 | 0.00 | 0.00 | 47 | 1011.9 |
| 20260508182009 | 67 | 318 | 5.0 | 13.0 | 0.00 | 0.00 | 0.00 | 46 | 1012.1 |
| 20260508181522 | 67 | 193 | 3.0 | 13.0 | 0.00 | 0.00 | 0.00 | 43 | 1012.0 |
| 20260508181008 | 67 | 209 | 4.0 | 13.0 | 0.00 | 0.00 | 0.00 | 42 | 1012.0 |
| 20260508180503 | 67 | 257 | 6.0 | 14.0 | 0.00 | 0.00 | 0.00 | 46 | 1012.0 |
| 20260508180004 | 66 | 286 | 5.0 | 16.0 | 0.00 | 0.00 | 0.00 | 46 | 1012.1 |
| 20260508175504 | 66 | 232 | 10.0 | 16.0 | 0.00 | 0.00 | 0.00 | 42 | 1012.1 |
| 20260508175004 | 65 | 207 | 7.0 | 15.0 | 0.00 | 0.00 | 0.00 | 45 | 1012.1 |
| 20260508174511 | 65 | 225 | 5.0 | 11.0 | 0.00 | 0.00 | 0.00 | 46 | 1012.3 |
| 20260508174006 | 65 | 232 | 6.0 | 11.0 | 0.00 | 0.00 | 0.00 | 47 | 1012.4 |
| 20260508173506 | 65 | 260 | 5.0 | 12.0 | 0.00 | 0.00 | 0.00 | 45 | 1012.6 |
| 20260508173017 | 65 | 280 | 8.0 | 12.0 | 0.00 | 0.00 | 0.00 | 47 | 1012.7 |
| 20260508172508 | 66 | 227 | 8.0 | 12.0 | 0.00 | 0.00 | 0.00 | 45 | 1012.8 |
| 20260508172008 | 66 | 208 | 5.0 | 11.0 | 0.00 | 0.00 | 0.00 | 47 | 1012.8 |
| 20260508171524 | 66 | 244 | 8.0 | 12.0 | 0.00 | 0.00 | 0.00 | 44 | 1012.9 |
| 20260508171016 | 66 | 222 | 7.0 | 12.0 | 0.00 | 0.00 | 0.00 | 46 | 1013.0 |
| 20260508170508 | 67 | 273 | 7.0 | 14.0 | 0.00 | 0.00 | 0.00 | 46 | 1013.1 |
| 20260508170033 | 67 | 274 | 9.0 | 14.0 | 0.00 | 0.00 | 0.00 | 47 | 1013.2 |
| 20260508165503 | 67 | 234 | 7.0 | 15.0 | 0.00 | 0.00 | 0.00 | 46 | 1013.2 |
| 20260508165005 | 67 | 267 | 9.0 | 15.0 | 0.00 | 0.00 | 0.00 | 48 | 1013.4 |
| 20260508164520 | 66 | 253 | 7.0 | 14.0 | 0.00 | 0.00 | 0.00 | 46 | 1013.4 |
| 20260508164007 | 66 | 262 | 9.0 | 14.0 | 0.00 | 0.00 | 0.00 | 47 | 1013.5 |
| 20260508163504 | 66 | 229 | 6.0 | 14.0 | 0.00 | 0.00 | 0.00 | 49 | 1013.4 |
| 20260508163016 | 66 | 174 | 7.0 | 12.0 | 0.00 | 0.00 | 0.00 | 47 | 1013.5 |
| 20260508162508 | 66 | 240 | 5.0 | 12.0 | 0.00 | 0.00 | 0.00 | 49 | 1013.5 |
| 20260508162007 | 65 | 238 | 7.0 | 16.0 | 0.00 | 0.00 | 0.00 | 50 | 1013.6 |
| 20260508161520 | 65 | 247 | 6.0 | 16.0 | 0.00 | 0.00 | 0.00 | 50 | 1013.6 |
| 20260508161009 | 65 | 264 | 6.0 | 15.0 | 0.00 | 0.00 | 0.00 | 49 | 1013.7 |
| 20260508160510 | 65 | 254 | 6.0 | 15.0 | 0.00 | 0.00 | 0.00 | 50 | 1013.8 |
| 20260508160025 | 64 | 302 | 7.0 | 12.0 | 0.00 | 0.00 | 0.00 | 47 | 1013.9 |
| 20260508155509 | 64 | 229 | 7.0 | 13.0 | 0.00 | 0.00 | 0.00 | 54 | 1013.9 |
| 20260508155011 | 64 | 265 | 6.0 | 14.0 | 0.00 | 0.00 | 0.00 | 52 | 1013.8 |
| 20260508154506 | 64 | 230 | 7.0 | 14.0 | 0.00 | 0.00 | 0.00 | 51 | 1013.9 |
| 20260508154004 | 64 | 208 | 6.0 | 13.0 | 0.00 | 0.00 | 0.00 | 52 | 1013.9 |
| 20260508153505 | 64 | 266 | 5.0 | 16.0 | 0.00 | 0.00 | 0.00 | 52 | 1014.0 |
| 20260508153027 | 63 | 248 | 7.0 | 16.0 | 0.00 | 0.00 | 0.00 | 50 | 1013.9 |
| 20260508152507 | 63 | 246 | 6.0 | 14.0 | 0.00 | 0.00 | 0.00 | 52 | 1014.0 |
| 20260508152010 | 63 | 292 | 7.0 | 13.0 | 0.00 | 0.00 | 0.00 | 51 | 1014.1 |
| 20260508151520 | 63 | 252 | 5.0 | 14.0 | 0.00 | 0.00 | 0.00 | 54 | 1014.0 |
| 20260508151008 | 62 | 276 | 5.0 | 14.0 | 0.00 | 0.00 | 0.00 | 50 | 1014.1 |
| 20260508150509 | 62 | 241 | 7.0 | 14.0 | 0.00 | 0.00 | 0.00 | 51 | 1014.1 |
| 20260508150026 | 63 | 247 | 5.0 | 12.0 | 0.00 | 0.00 | 0.00 | 53 | 1014.2 |
| 20260508145507 | 62 | 221 | 4.0 | 14.0 | 0.00 | 0.00 | 0.00 | 54 | 1014.2 |
| 20260508145009 | 62 | 264 | 7.0 | 14.0 | 0.00 | 0.00 | 0.00 | 51 | 1014.2 |
| 20260508144529 | 62 | 303 | 3.0 | 12.0 | 0.00 | 0.00 | 0.00 | 55 | 1014.2 |
| 20260508144006 | 61 | 271 | 3.0 | 10.0 | 0.00 | 0.00 | 0.00 | 54 | 1014.3 |
| 20260508143506 | 61 | 295 | 5.0 | 12.0 | 0.00 | 0.00 | 0.00 | 50 | 1014.5 |
| 20260508143012 | 60 | 248 | 6.0 | 13.0 | 0.00 | 0.00 | 0.00 | 52 | 1014.5 |
| 20260508142504 | 60 | 228 | 7.0 | 13.0 | 0.00 | 0.00 | 0.00 | 53 | 1014.5 |
| 20260508142012 | 60 | 286 | 5.0 | 14.0 | 0.00 | 0.00 | 0.00 | 53 | 1014.6 |
| 20260508141516 | 59 | 242 | 6.0 | 14.0 | 0.00 | 0.00 | 0.00 | 53 | 1014.7 |
| 20260508141008 | 59 | 215 | 4.0 | 8.0 | 0.00 | 0.00 | 0.00 | 58 | 1014.8 |
| 20260508140504 | 58 | 236 | 4.0 | 7.0 | 0.00 | 0.00 | 0.00 | 55 | 1014.8 |
| 20260508140023 | 57 | 277 | 3.0 | 6.0 | 0.00 | 0.00 | 0.00 | 56 | 1014.7 |
| 20260508135507 | 56 | 244 | 1.0 | 6.0 | 0.00 | 0.00 | 0.00 | 60 | 1014.9 |
| 20260508135010 | 56 | 202 | 2.0 | 8.0 | 0.00 | 0.00 | 0.00 | 58 | 1014.9 |
| 20260508134523 | 55 | 243 | 4.0 | 8.0 | 0.00 | 0.00 | 0.00 | 60 | 1014.9 |
| 20260508134008 | 55 | 264 | 1.0 | 5.0 | 0.00 | 0.00 | 0.00 | 61 | 1015.0 |
| 20260508133510 | 55 | 211 | 1.0 | 6.0 | 0.00 | 0.00 | 0.00 | 61 | 1015.0 |
| 20260508133027 | 54 | 207 | 3.0 | 8.0 | 0.00 | 0.00 | 0.00 | 57 | 1015.0 |
| 20260508132510 | 54 | 269 | 2.0 | 8.0 | 0.00 | 0.00 | 0.00 | 60 | 1015.1 |
| 20260508132003 | 54 | 230 | 3.0 | 6.0 | 0.00 | 0.00 | 0.00 | 60 | 1015.0 |
| 20260508131516 | 54 | 192 | 2.0 | 5.0 | 0.00 | 0.00 | 0.00 | 62 | 1015.0 |
| 20260508131006 | 53 | 216 | 3.0 | 5.0 | 0.00 | 0.00 | 0.00 | 61 | 1015.0 |
| 20260508130507 | 53 | 221 | 1.0 | 5.0 | 0.00 | 0.00 | 0.00 | 63 | 1014.8 |
| 20260508130031 | 52 | 218 | 2.0 | 7.0 | 0.00 | 0.00 | 0.00 | 63 | 1014.8 |
| 20260508125508 | 52 | 221 | 4.0 | 7.0 | 0.00 | 0.00 | 0.00 | 61 | 1014.9 |
| 20260508125008 | 52 | 237 | 3.0 | 5.0 | 0.00 | 0.00 | 0.00 | 65 | 1014.9 |
| 20260508124524 | 51 | 169 | 2.0 | 4.0 | 0.00 | 0.00 | 0.00 | 65 | 1014.9 |
| 20260508124010 | 51 | 229 | 2.0 | 4.0 | 0.00 | 0.00 | 0.00 | 1014.9 | |
| 20260508123508 | 51 | 240 | 1.0 | 4.0 | 0.00 | 0.00 | 0.00 | 66 | 1014.8 |
| 20260508123028 | 50 | 217 | 2.0 | 4.0 | 0.00 | 0.00 | 0.00 | 66 | 1014.8 |
| 20260508122513 | 50 | 225 | 1.0 | 4.0 | 0.00 | 0.00 | 0.00 | 65 | 1014.7 |
| 20260508122012 | 50 | 229 | 1.0 | 4.0 | 0.00 | 0.00 | 0.00 | 66 | 1014.7 |
| 20260508121530 | 49 | 225 | 0.0 | 5.0 | 0.00 | 0.00 | 0.00 | 67 | 1014.7 |
| 20260508121004 | 48 | 215 | 3.0 | 5.0 | 0.00 | 0.00 | 0.00 | 68 | 1014.8 |
| 20260508120503 | 48 | 229 | 2.0 | 5.0 | 0.00 | 0.00 | 0.00 | 70 | 1014.7 |
| 20260508120017 | 47 | 219 | 0.0 | 4.0 | 0.00 | 0.00 | 0.00 | 72 | 1014.7 |
| 20260508115504 | 47 | 205 | 1.0 | 4.0 | 0.00 | 0.00 | 0.00 | 72 | 1014.6 |
| 20260508115006 | 46 | 173 | 0.0 | 2.0 | 0.00 | 0.00 | 0.00 | 74 | 1014.6 |
| 20260508114523 | 46 | 200 | 1.0 | 5.0 | 0.00 | 0.00 | 0.00 | 73 | 1014.6 |
| 20260508114011 | 46 | 184 | 0.0 | 5.0 | 0.00 | 0.00 | 0.00 | 74 | 1014.5 |
| 20260508113504 | 45 | 165 | 0.0 | 2.0 | 0.00 | 0.00 | 0.00 | 75 | 1014.5 |
| 20260508113005 | 45 | 219 | 0.0 | 2.0 | 0.00 | 0.00 | 0.00 | 76 | 1014.4 |
| 20260508112505 | 45 | 218 | 0.0 | 2.0 | 0.00 | 0.00 | 0.00 | 77 | 1014.4 |
| 20260508112003 | 45 | 219 | 0.0 | 2.0 | 0.00 | 0.00 | 0.00 | 77 | 1014.3 |
| 20260508111507 | 45 | 218 | 0.0 | 2.0 | 0.00 | 0.00 | 0.00 | 78 | 1014.2 |
| 20260508111004 | 45 | 219 | 0.0 | 2.0 | 0.00 | 0.00 | 0.00 | 77 | 1014.2 |
| 20260508110502 | 45 | 218 | 0.0 | 2.0 | 0.00 | 0.00 | 0.00 | 78 | 1014.1 |
| 20260508110004 | 44 | 219 | 0.0 | 2.0 | 0.00 | 0.00 | 0.00 | 78 | 1014.1 |
| 20260508105504 | 44 | 219 | 0.0 | 2.0 | 0.00 | 0.00 | 0.00 | 77 | 1014.1 |
| 20260508105003 | 44 | 192 | 0.0 | 2.0 | 0.00 | 0.00 | 0.00 | 80 | 1014.1 |
| 20260508104504 | 44 | 192 | 0.0 | 2.0 | 0.00 | 0.00 | 0.00 | 80 | 1014.2 |
| 20260508104003 | 44 | 192 | 0.0 | 2.0 | 0.00 | 0.00 | 0.00 | 80 | 1014.3 |
| 20260508103503 | 43 | 192 | 0.0 | 2.0 | 0.00 | 0.00 | 0.00 | 79 | 1014.3 |
| 20260508103010 | 43 | 192 | 0.0 | 2.0 | 0.00 | 0.00 | 0.00 | 79 | 1014.2 |
| 20260508102502 | 43 | 192 | 0.0 | 2.0 | 0.00 | 0.00 | 0.00 | 80 | 1014.2 |
| 20260508102003 | 43 | 164 | 0.0 | 2.0 | 0.00 | 0.00 | 0.00 | 80 | 1014.2 |
| 20260508101504 | 43 | 164 | 0.0 | 2.0 | 0.00 | 0.00 | 0.00 | 82 | 1014.1 |
| 20260508101002 | 43 | 164 | 0.0 | 2.0 | 0.00 | 0.00 | 0.00 | 82 | 1014.2 |
| 20260508100503 | 43 | 164 | 0.0 | 2.0 | 0.00 | 0.00 | 0.00 | 82 | 1014.2 |
| 20260508100004 | 43 | 164 | 0.0 | 2.0 | 0.00 | 0.00 | 0.00 | 82 | 1014.3 |
| 20260508095506 | 43 | 164 | 0.0 | 2.0 | 0.00 | 0.00 | 0.00 | 81 | 1014.3 |
| 20260508095004 | 43 | 164 | 0.0 | 2.0 | 0.00 | 0.00 | 0.00 | 81 | 1014.3 |
| 20260508094509 | 43 | 164 | 0.0 | 2.0 | 0.00 | 0.00 | 0.00 | 80 | 1014.3 |
| 20260508094003 | 43 | 164 | 0.0 | 1.0 | 0.00 | 0.00 | 0.00 | 80 | 1014.3 |
| 20260508093503 | 43 | 164 | 0.0 | 2.0 | 0.00 | 0.00 | 0.00 | 80 | 1014.3 |
| 20260508093008 | 43 | 164 | 0.0 | 2.0 | 0.00 | 0.00 | 0.00 | 81 | 1014.4 |
| 20260508092503 | 43 | 164 | 0.0 | 2.0 | 0.00 | 0.00 | 0.00 | 81 | 1014.3 |
| 20260508092007 | 43 | 164 | 0.0 | 2.0 | 0.00 | 0.00 | 0.00 | 80 | 1014.2 |
| 20260508091514 | 43 | 168 | 0.0 | 2.0 | 0.00 | 0.00 | 0.00 | 80 | 1014.3 |
| 20260508091003 | 43 | 204 | 0.0 | 2.0 | 0.00 | 0.00 | 0.00 | 79 | 1014.3 |
| 20260508090503 | 42 | 219 | 0.0 | 2.0 | 0.00 | 0.00 | 0.00 | 80 | 1014.3 |
| 20260508090010 | 42 | 220 | 0.0 | 2.0 | 0.00 | 0.00 | 0.00 | 81 | 1014.2 |
| 20260508085505 | 42 | 222 | 0.0 | 0.0 | 0.00 | 0.00 | 0.00 | 81 | 1014.2 |
| 20260508085003 | 42 | 170 | 0.0 | 0.0 | 0.00 | 0.00 | 0.00 | 80 | 1014.1 |
| 20260508084509 | 42 | 170 | 0.0 | 0.0 | 0.00 | 0.00 | 0.00 | 78 | 1014.4 |
| 20260508084003 | 42 | 170 | 0.0 | 0.0 | 0.00 | 0.00 | 0.00 | 77 | 1014.4 |
| 20260508083503 | 42 | 170 | 0.0 | 0.0 | 0.00 | 0.00 | 0.00 | 76 | 1014.3 |
| 20260508083012 | 42 | 170 | 0.0 | 0.0 | 0.00 | 0.00 | 0.00 | 76 | 1014.2 |
| 20260508082505 | 42 | 170 | 0.0 | 0.0 | 0.00 | 0.00 | 0.00 | 76 | 1014.2 |
| 20260508082008 | 42 | 170 | 0.0 | 0.0 | 0.00 | 0.00 | 0.00 | 75 | 1014.1 |
| 20260508081511 | 42 | 170 | 0.0 | 0.0 | 0.00 | 0.00 | 0.00 | 75 | 1014.0 |
| 20260508081004 | 42 | 228 | 0.0 | 0.0 | 0.00 | 0.00 | 0.00 | 75 | 1014.1 |
| 20260508080503 | 42 | 228 | 0.0 | 4.0 | 0.00 | 0.00 | 0.00 | 75 | 1014.1 |
| 20260508080012 | 42 | 228 | 0.0 | 4.0 | 0.00 | 0.00 | 0.00 | 75 | 1014.1 |
| 20260508075503 | 42 | 211 | 0.0 | 2.0 | 0.00 | 0.00 | 0.00 | 76 | 1014.1 |
| 20260508075002 | 42 | 142 | 0.0 | 2.0 | 0.00 | 0.00 | 0.00 | 76 | 1014.1 |
| 20260508074514 | 42 | 142 | 0.0 | 2.0 | 0.00 | 0.00 | 0.00 | 75 | 1014.0 |
| 20260508074001 | 42 | 128 | 0.0 | 2.0 | 0.00 | 0.00 | 0.00 | 75 | 1014.0 |
| 20260508073507 | 42 | 174 | 0.0 | 2.0 | 0.00 | 0.00 | 0.00 | 75 | 1014.0 |
| 20260508073012 | 42 | 260 | 0.0 | 2.0 | 0.00 | 0.00 | 0.00 | 76 | 1014.1 |
| 20260508072506 | 42 | 184 | 0.0 | 0.0 | 0.00 | 0.00 | 0.00 | 76 | 1014.1 |
| 20260508072006 | 42 | 184 | 0.0 | 2.0 | 0.00 | 0.00 | 0.00 | 77 | 1014.1 |
| 20260508071516 | 42 | 184 | 0.0 | 3.0 | 0.00 | 0.00 | 0.00 | 77 | 1014.1 |
| 20260508071003 | 42 | 184 | 0.0 | 4.0 | 0.00 | 0.00 | 0.00 | 78 | 1014.1 |
| 20260508070503 | 41 | 184 | 1.0 | 4.0 | 0.00 | 0.00 | 0.00 | 79 | 1014.1 |
| 20260508070012 | 41 | 114 | 0.0 | 2.0 | 0.00 | 0.00 | 0.00 | 79 | 1014.2 |
| 20260508065504 | 41 | 146 | 0.0 | 2.0 | 0.00 | 0.00 | 0.00 | 80 | 1014.3 |
| 20260508065003 | 41 | 161 | 0.0 | 2.0 | 0.00 | 0.00 | 0.00 | 80 | 1014.4 |
| 20260508064512 | 41 | 270 | 0.0 | 2.0 | 0.00 | 0.00 | 0.00 | 81 | 1014.5 |
| 20260508064006 | 41 | 270 | 0.0 | 2.0 | 0.00 | 0.00 | 0.00 | 81 | 1014.6 |
| 20260508063503 | 41 | 270 | 0.0 | 2.0 | 0.00 | 0.00 | 0.00 | 81 | 1014.7 |
| 20260508063014 | 41 | 270 | 0.0 | 2.0 | 0.00 | 0.00 | 0.00 | 80 | 1014.6 |
| 20260508062506 | 41 | 270 | 0.0 | 2.0 | 0.00 | 0.00 | 0.00 | 79 | 1014.7 |
| 20260508062003 | 41 | 270 | 0.0 | 2.0 | 0.00 | 0.00 | 0.00 | 79 | 1014.8 |
| 20260508061514 | 41 | 270 | 0.0 | 1.0 | 0.00 | 0.00 | 0.00 | 79 | 1014.7 |
| 20260508061003 | 42 | 270 | 0.0 | 0.0 | 0.00 | 0.00 | 0.00 | 79 | 1014.8 |
| 20260508060507 | 42 | 269 | 0.0 | 0.0 | 0.00 | 0.00 | 0.00 | 79 | 1014.7 |
| 20260508060012 | 42 | 269 | 0.0 | 0.0 | 0.00 | 0.00 | 0.00 | 79 | 1014.7 |
| 20260508055505 | 42 | 270 | 0.0 | 0.0 | 0.00 | 0.00 | 0.00 | 78 | 1014.7 |
| 20260508055008 | 42 | 270 | 0.0 | 0.0 | 0.00 | 0.00 | 0.00 | 77 | 1014.9 |
| 20260508054511 | 42 | 270 | 0.0 | 0.0 | 0.00 | 0.00 | 0.00 | 77 | 1014.8 |
| 20260508054006 | 42 | 270 | 0.0 | 0.0 | 0.00 | 0.00 | 0.00 | 76 | 1014.8 |
| 20260508053505 | 42 | 270 | 0.0 | 0.0 | 0.00 | 0.00 | 0.00 | 76 | 1014.9 |
| 20260508053013 | 42 | 269 | 0.0 | 0.0 | 0.00 | 0.00 | 0.00 | 76 | 1014.7 |
| 20260508052504 | 42 | 270 | 0.0 | 0.0 | 0.00 | 0.00 | 0.00 | 77 | 1014.7 |
| 20260508052003 | 42 | 270 | 0.0 | 0.0 | 0.00 | 0.00 | 0.00 | 78 | 1014.7 |
| 20260508051514 | 42 | 270 | 0.0 | 0.0 | 0.00 | 0.00 | 0.00 | 78 | 1014.6 |
| 20260508051007 | 43 | 270 | 0.0 | 0.0 | 0.00 | 0.00 | 0.00 | 78 | 1014.6 |
| 20260508050506 | 43 | 270 | 0.0 | 0.0 | 0.00 | 0.00 | 0.00 | 78 | 1014.7 |
| 20260508050018 | 43 | 270 | 0.0 | 0.0 | 0.00 | 0.00 | 0.00 | 76 | 1014.7 |
| 20260508045505 | 43 | 270 | 0.0 | 0.0 | 0.00 | 0.00 | 0.00 | 75 | 1014.7 |
| 20260508045006 | 43 | 270 | 0.0 | 0.0 | 0.00 | 0.00 | 0.00 | 75 | 1014.6 |
| 20260508044514 | 43 | 270 | 0.0 | 2.0 | 0.00 | 0.00 | 0.00 | 76 | 1014.6 |
| 20260508044004 | 43 | 270 | 0.0 | 2.0 | 0.00 | 0.00 | 0.00 | 77 | 1014.6 |
| 20260508043506 | 43 | 270 | 0.0 | 2.0 | 0.00 | 0.00 | 0.00 | 76 | 1014.6 |
| 20260508043016 | 43 | 270 | 0.0 | 2.0 | 0.00 | 0.00 | 0.00 | 75 | 1014.6 |
| 20260508042504 | 43 | 270 | 0.0 | 2.0 | 0.00 | 0.00 | 0.00 | 77 | 1014.6 |
| 20260508042010 | 43 | 270 | 0.0 | 2.0 | 0.00 | 0.00 | 0.00 | 75 | 1014.6 |
| 20260508041515 | 43 | 270 | 0.0 | 2.0 | 0.00 | 0.00 | 0.00 | 75 | 1014.5 |
| 20260508041006 | 43 | 270 | 0.0 | 2.0 | 0.00 | 0.00 | 0.00 | 75 | 1014.4 |
| 20260508040507 | 43 | 270 | 0.0 | 1.0 | 0.00 | 0.00 | 0.00 | 76 | 1014.4 |
| 20260508040026 | 43 | 270 | 0.0 | 0.0 | 0.00 | 0.00 | 0.00 | 75 | 1014.5 |
| 20260508035505 | 43 | 270 | 0.0 | 0.0 | 0.00 | 0.00 | 0.00 | 76 | 1014.4 |
| 20260508035007 | 44 | 270 | 0.0 | 0.0 | 0.00 | 0.00 | 0.00 | 76 | 1014.4 |
| 20260508034520 | 44 | 270 | 0.0 | 0.0 | 0.00 | 0.00 | 0.00 | 77 | 1014.4 |
| 20260508034004 | 44 | 270 | 0.0 | 0.0 | 0.00 | 0.00 | 0.00 | 76 | 1014.5 |
| 20260508033503 | 44 | 270 | 0.0 | 0.0 | 0.00 | 0.00 | 0.00 | 75 | 1014.4 |
| 20260508033019 | 44 | 270 | 0.0 | 0.0 | 0.00 | 0.00 | 0.00 | 75 | 1014.6 |
| 20260508032507 | 43 | 270 | 0.0 | 0.0 | 0.00 | 0.00 | 0.00 | 76 | 1014.6 |
| 20260508032006 | 43 | 270 | 0.0 | 0.0 | 0.00 | 0.00 | 0.00 | 77 | 1014.5 |
| 20260508031517 | 43 | 270 | 0.0 | 0.0 | 0.00 | 0.00 | 0.00 | 77 | 1014.4 |
| 20260508031008 | 43 | 270 | 0.0 | 0.0 | 0.00 | 0.00 | 0.00 | 79 | 1014.3 |
| 20260508030503 | 43 | 270 | 0.0 | 0.0 | 0.00 | 0.00 | 0.00 | 80 | 1014.3 |
| 20260508030025 | 43 | 270 | 0.0 | 0.0 | 0.00 | 0.00 | 0.00 | 80 | 1014.3 |
| 20260508025506 | 43 | 270 | 0.0 | 0.0 | 0.00 | 0.00 | 0.00 | 79 | 1014.4 |
| 20260508025007 | 43 | 270 | 0.0 | 0.0 | 0.00 | 0.00 | 0.00 | 78 | 1014.5 |
| 20260508024520 | 43 | 269 | 0.0 | 1.0 | 0.00 | 0.00 | 0.00 | 79 | 1014.5 |
| 20260508024004 | 43 | 270 | 0.0 | 2.0 | 0.00 | 0.00 | 0.00 | 79 | 1014.5 |
| 20260508023503 | 43 | 270 | 1.0 | 2.0 | 0.00 | 0.00 | 0.00 | 79 | 1014.4 |
| 20260508023008 | 43 | 269 | 0.0 | 2.0 | 0.00 | 0.00 | 0.00 | 78 | 1014.5 |
| 20260508022508 | 44 | 269 | 1.0 | 2.0 | 0.00 | 0.00 | 0.00 | 79 | 1014.4 |
| 20260508022004 | 44 | 270 | 0.0 | 2.0 | 0.00 | 0.00 | 0.00 | 78 | 1014.4 |
| 20260508021514 | 44 | 270 | 0.0 | 2.0 | 0.00 | 0.00 | 0.00 | 78 | 1014.5 |
| 20260508021007 | 44 | 270 | 0.0 | 2.0 | 0.00 | 0.00 | 0.00 | 77 | 1014.4 |
| 20260508020506 | 44 | 270 | 0.0 | 1.0 | 0.00 | 0.00 | 0.00 | 75 | 1014.3 |
| 20260508020027 | 44 | 269 | 1.0 | 1.0 | 0.00 | 0.00 | 0.00 | 74 | 1014.3 |
| 20260508015511 | 45 | 270 | 0.0 | 1.0 | 0.00 | 0.00 | 0.00 | 74 | 1014.4 |
| 20260508015007 | 45 | 270 | 0.0 | 2.0 | 0.00 | 0.00 | 0.00 | 74 | 1014.3 |
| 20260508014504 | 46 | 270 | 0.0 | 2.0 | 0.00 | 0.00 | 0.00 | 74 | 1014.4 |
| 20260508014004 | 46 | 269 | 0.0 | 0.0 | 0.00 | 0.00 | 0.00 | 74 | 1014.4 |
| 20260508013502 | 47 | 270 | 0.0 | 0.0 | 0.00 | 0.00 | 0.00 | 73 | 1014.4 |
| 20260508013007 | 47 | 270 | 0.0 | 0.0 | 0.00 | 0.00 | 0.00 | 72 | 1014.4 |
| 20260508012508 | 47 | 270 | 0.0 | 0.0 | 0.00 | 0.00 | 0.00 | 72 | 1014.4 |
| 20260508012004 | 48 | 270 | 0.0 | 0.0 | 0.00 | 0.00 | 0.00 | 70 | 1014.3 |
| 20260508011513 | 48 | 269 | 0.0 | 0.0 | 0.00 | 0.00 | 0.00 | 70 | 1014.3 |
| 20260508011004 | 49 | 269 | 0.0 | 0.0 | 0.00 | 0.00 | 0.00 | 68 | 1014.3 |
| 20260508010504 | 49 | 270 | 0.0 | 0.0 | 0.00 | 0.00 | 0.00 | 67 | 1014.3 |
| 20260508010018 | 50 | 270 | 0.0 | 0.0 | 0.00 | 0.00 | 0.00 | 67 | 1014.3 |
| 20260508005507 | 51 | 270 | 0.0 | 2.0 | 0.00 | 0.00 | 0.00 | 65 | 1014.2 |
| 20260508005006 | 51 | 270 | 0.0 | 2.0 | 0.00 | 0.00 | 0.00 | 63 | 1014.2 |
| 20260508004520 | 52 | 270 | 0.0 | 2.0 | 0.00 | 0.00 | 0.00 | 60 | 1014.2 |
| 20260508004010 | 53 | 270 | 0.0 | 2.0 | 0.00 | 0.00 | 0.00 | 54 | 1014.2 |
| 20260508003508 | 54 | 270 | 0.0 | 2.0 | 0.00 | 0.00 | 0.00 | 53 | 1014.2 |
| 20260508003006 | 55 | 270 | 0.0 | 2.0 | 0.00 | 0.00 | 0.00 | 51 | 1014.2 |
| 20260508002504 | 56 | 270 | 0.0 | 2.0 | 0.00 | 0.00 | 0.00 | 48 | 1014.2 |
| 20260508002004 | 56 | 270 | 0.0 | 2.0 | 0.00 | 0.00 | 0.00 | 46 | 1014.1 |
| 20260508001519 | 57 | 270 | 0.0 | 2.0 | 0.00 | 0.00 | 0.00 | 43 | 1014.1 |
| 20260508001004 | 57 | 264 | 1.0 | 2.0 | 0.00 | 0.00 | 0.00 | 43 | 1014.1 |
| 20260508000507 | 57 | 276 | 1.0 | 5.0 | 0.00 | 0.00 | 0.00 | 42 | 1014.2 |
| 20260508000016 | 57 | 264 | 1.0 | 7.0 | 0.00 | 0.00 | 0.00 | 41 | 1014.1 |
| 20260507235504 | 58 | 261 | 2.0 | 7.0 | 0.00 | 0.00 | 0.00 | 41 | 1014.1 |
| 20260507235006 | 58 | 261 | 4.0 | 7.0 | 0.00 | 0.00 | 0.00 | 40 | 1014.1 |
| 20260507234519 | 58 | 237 | 3.0 | 6.0 | 0.00 | 0.00 | 0.00 | 40 | 1014.1 |
| 20260507234051 | 58 | 272 | 4.0 | 6.0 | 0.00 | 0.00 | 0.00 | 42 | 1014.0 |
| 20260507233507 | 59 | 294 | 2.0 | 5.0 | 0.00 | 0.00 | 0.00 | 39 | 1014.0 |
| 20260507233025 | 59 | 295 | 2.0 | 7.0 | 0.00 | 0.00 | 0.00 | 40 | 1013.9 |
| 20260507232511 | 59 | 311 | 2.0 | 7.0 | 0.00 | 0.00 | 0.00 | 40 | 1013.9 |
| 20260507232011 | 59 | 288 | 1.0 | 8.0 | 0.00 | 0.00 | 0.00 | 41 | 1013.7 |
| 20260507231507 | 59 | 271 | 3.0 | 8.0 | 0.00 | 0.00 | 0.00 | 41 | 1013.8 |
| 20260507231002 | 59 | 282 | 3.0 | 6.0 | 0.00 | 0.00 | 0.00 | 41 | 1013.9 |
| 20260507230503 | 59 | 313 | 3.0 | 6.0 | 0.00 | 0.00 | 0.00 | 39 | 1013.8 |
| 20260507230012 | 59 | 248 | 2.0 | 6.0 | 0.00 | 0.00 | 0.00 | 40 | 1013.9 |
| 20260507225510 | 59 | 310 | 3.0 | 7.0 | 0.00 | 0.00 | 0.00 | 40 | 1013.9 |
| 20260507225007 | 59 | 234 | 3.0 | 8.0 | 0.00 | 0.00 | 0.00 | 43 | 1013.9 |
| 20260507224516 | 59 | 261 | 3.0 | 8.0 | 0.00 | 0.00 | 0.00 | 38 | 1013.9 |
| 20260507224010 | 59 | 281 | 4.0 | 8.0 | 0.00 | 0.00 | 0.00 | 40 | 1013.9 |
| 20260507223510 | 59 | 271 | 4.0 | 8.0 | 0.00 | 0.00 | 0.00 | 41 | 1013.9 |
| 20260507223024 | 60 | 270 | 2.0 | 8.0 | 0.00 | 0.00 | 0.00 | 42 | 1013.9 |
| 20260507222507 | 60 | 285 | 3.0 | 8.0 | 0.00 | 0.00 | 0.00 | 38 | 1014.0 |
| 20260507222006 | 59 | 352 | 1.0 | 9.0 | 0.00 | 0.00 | 0.00 | 40 | 1014.0 |
| 20260507221524 | 59 | 269 | 4.0 | 9.0 | 0.00 | 0.00 | 0.00 | 39 | 1014.0 |
| 20260507221011 | 59 | 317 | 3.0 | 8.0 | 0.00 | 0.00 | 0.00 | 39 | 1014.0 |
| 20260507220502 | 58 | 28 | 3.0 | 7.0 | 0.00 | 0.00 | 0.00 | 40 | 1014.1 |
| 20260507220025 | 58 | 48 | 1.0 | 6.0 | 0.00 | 0.00 | 0.00 | 42 | 1014.1 |
| 20260507215504 | 58 | 286 | 3.0 | 8.0 | 0.00 | 0.00 | 0.00 | 41 | 1014.2 |
| 20260507215007 | 58 | 317 | 2.0 | 8.0 | 0.00 | 0.00 | 0.00 | 42 | 1014.1 |
| 20260507214516 | 58 | 309 | 3.0 | 8.0 | 0.00 | 0.00 | 0.00 | 41 | 1014.1 |
| 20260507214007 | 58 | 290 | 3.0 | 8.0 | 0.00 | 0.00 | 0.00 | 43 | 1014.1 |
| 20260507213507 | 58 | 287 | 2.0 | 9.0 | 0.00 | 0.00 | 0.00 | 40 | 1014.2 |
| 20260507213022 | 59 | 304 | 5.0 | 9.0 | 0.00 | 0.00 | 0.00 | 39 | 1014.2 |
| 20260507212505 | 60 | 298 | 3.0 | 8.0 | 0.00 | 0.00 | 0.00 | 40 | 1014.1 |
| 20260507212007 | 60 | 321 | 3.0 | 8.0 | 0.00 | 0.00 | 0.00 | 45 | 1014.2 |
| 20260507211526 | 59 | 335 | 3.0 | 8.0 | 0.00 | 0.00 | 0.00 | 42 | 1014.0 |
| 20260507211008 | 59 | 279 | 3.0 | 10.0 | 0.00 | 0.00 | 0.00 | 42 | 1014.0 |
| 20260507210507 | 59 | 295 | 3.0 | 12.0 | 0.00 | 0.00 | 0.00 | 44 | 1014.0 |
| 20260507210028 | 59 | 293 | 6.0 | 12.0 | 0.00 | 0.00 | 0.00 | 43 | 1014.0 |